User: anonymous   Login
Location: Betra
(48.4113°N, 8.6634°E)
Time: 04:29:48
(UTC+00:00)
Language:

Helios 1A Rocket - Orbit

View from above orbital plane
View from above orbital plane
View from above satellite
View from above satellite

Ground track
Ground track

The orbit data is extracted from the following two-line orbital elements,

1 23608U 95033D   24204.57148253  .00019686  00000-0  11365-2 0  9994
2 23608  98.2566 331.1927 0015188 297.2109  62.7571 15.12283228575869
Epoch (UTC): 22 July 2024 13:42:56
Eccentricity: 0.0015188
inclination: 98.2566°
perigee height: 519 km
apogee height: 540 km
right ascension of ascending node: 331.1927°
argument of perigee: 297.2109°
revolutions per day: 15.12283228
mean anomaly at epoch: 62.7571°
orbit number at epoch: 57586

The dashed part of the orbit path shows where the satellite is in the earth's shadow,  

DLR